FW0428 Weather Reports


Display with metric or nautical units.
time (UTC)temp
F
wind
direction
speed
MPH
gust
MPH
rain 1hr
in
rain 24hr
in
rain mn
in
humidity
%
barometer
mb
20260504014649 69 91 0.0 0.0 0.00 0.00 0.00 55 1015.6
20260504011533 72 110 0.0 0.0 0.00 0.00 0.00 48 1015.3
20260504010043 74 110 0.0 1.0 0.00 0.00 0.00 45 1015.3
20260504003027 78 80 0.0 2.0 0.00 0.00 0.00 41 1015.4
20260503234532 78 323 0.0 1.0 0.00 0.00 0.00 40 1015.6
20260503223037 81 87 0.0 7.0 0.00 0.00 0.00 36 1015.8
20260503221545 82 109 1.0 3.0 0.00 0.00 0.00 36 1015.8
20260503214631 81 84 1.0 8.0 0.00 0.00 0.00 36 1016.3
20260503211557 80 119 2.0 10.0 0.00 0.00 0.00 37 1016.9
20260503204627 79 130 0.0 7.0 0.00 0.00 0.00 40 1017.4
20260503181619 77 49 1.0 13.0 0.00 0.00 0.00 42 1019.9
20260503160138 74 94 2.0 8.0 0.00 0.00 0.00 47 1021.2
20260503054608 55 134 0.0 0.0 0.00 0.00 0.00 83 1019.3
20260503053045 55 134 0.0 0.0 0.00 0.00 0.00 82 1019.2
20260503051533 55 134 0.0 0.0 0.00 0.00 0.00 81 1019.2
20260503050059 55 134 0.0 0.0 0.00 0.00 0.00 80 1019.2
20260503034645 57 134 0.0 0.0 0.00 0.00 0.00 73 1019.2
20260503031617 58 134 0.0 0.0 0.00 0.00 0.00 71 1019.1
20260503030055 59 134 0.0 0.0 0.00 0.00 0.00 68 1019.0
20260503023146 61 134 0.0 0.0 0.00 0.00 0.00 65 1018.8